Zurück zum Katalog

FENGYUN 1C DEB

AktivPO
NORAD 30110·DEBRIS·🇨🇳 China

Gestartet May 10, 1999 von Taiyuan Satellite Launch Center

Loading…

Nächste Überflüge (nächste 24 Stunden)

TLE

AktuellSource: Space-Track

Epoche: Sep 14, 2026, 17:27 UTC

1 30110U 99025RP  26257.72743877  .00000083  00000-0  13807-3 0  9990
2 30110  98.9114 345.5491 0267492   2.1592 358.0639 13.56349431972561

Verfolge FENGYUN 1C DEB in Echtzeit mit AllMySat

Download on the App Store